Wind_Speed
23 22 22 22 21 21 21 20 20 20 20 20 19 19 19 19 18 18 18 18 17 17 17 17 17 17 17 16 16 15 15 14 15 15 15 15 16 15 15 15 14 14 14 13 13 13 14 14 14 14 14 14 14 15 15 15 15 15 15 15 14 14 14 15 15 15 15 15 14 15 16 15 14 15 17 17 17 18 17 17 17 17 17 17 17 16 16 17
25 25 25 24 24 24 23 23 23 23 22 22 22 22 22 22 22 21 21 21 20 20 20 19 19 19 19 19 19 18 18 17 17 17 17 18 18 18 18 18 18 17 17 17 16 16 16 15 15 15 16 16 16 16 16 16 17 17 16 16 16 16 16 16 17 16 16 16 16 15 16 17 16 15 17 18 18 18 18 17 17 18 17 16 18 17 16 18
28 28 27 27 26 26 26 25 25 25 25 25 25 25 25 25 25 25 25 24 24 24 23 23 22 22 22 22 22 21 21 20 21 20 20 20 20 20 20 20 20 20 20 20 20 19 19 19 18 18 17 18 18 18 18 18 18 18 19 18 18 18 18 17 18 18 18 18 18 17 16 17 18 16 17 19 19 20 17 17 18 18 17 16 17 17 16 17
30 30 30 29 29 29 28 28 28 27 27 27 27 27 27 28 28 28 28 28 28 27 27 27 26 26 25 25 25 25 24 24 24 24 23 23 23 23 23 23 23 23 23 23 23 23 23 22 22 21 21 20 20 20 20 21 20 20 20 21 21 21 20 19 19 20 19 19 20 19 18 18 19 18 18 19 21 21 18 18 20 19 18 17 18 19 17 18
32 32 32 31 31 30 30 30 30 30 29 29 29 29 30 30 30 30 30 30 30 30 30 30 30 30 29 29 28 28 28 27 27 27 27 26 26 26 25 25 25 25 25 25 26 26 26 26 26 26 25 24 23 23 23 24 24 23 23 23 23 24 24 23 22 23 23 22 22 22 21 20 20 19 20 21 23 23 20 19 20 19 19 18 18 20 20 19
33 33 33 33 32 32 32 31 31 31 31 31 31 31 32 32 32 32 32 32 32 32 32 32 33 33 33 32 32 31 31 31 30 30 29 29 29 28 28 27 27 27 28 28 28 29 29 29 29 29 29 29 28 27 26 26 27 26 26 27 26 26 27 27 25 26 26 25 25 24 23 23 22 21 22 24 25 25 23 21 22 20 20 20 19 20 21 22
33 33 33 33 33 33 33 32 32 32 32 32 32 33 33 33 33 34 34 34 34 34 34 34 34 35 35 34 34 34 33 33 34 33 32 32 31 31 30 30 30 30 30 30 30 31 31 31 32 32 31 32 32 32 31 30 30 29 29 30 30 29 30 31 29 29 30 29 29 28 26 27 26 23 23 26 27 26 26 24 23 23 23 23 22 22 22 23
32 32 32 32 33 33 33 33 33 33 33 33 33 33 34 34 34 35 35 35 35 36 36 36 36 36 37 36 36 35 33 35 36 35 34 34 34 33 33 33 33 33 33 33 33 33 33 34 34 34 34 34 34 34 34 34 33 32 32 32 32 32 33 34 33 32 33 32 32 31 30 30 29 26 24 28 28 28 29 27 24 24 25 25 25 25 25 25
31 31 31 31 32 32 32 32 32 32 32 32 33 33 34 34 35 35 35 36 36 37 37 37 37 38 38 38 38 35 34 36 36 36 35 35 35 35 34 34 34 34 34 34 35 35 35 36 36 36 36 36 36 36 37 36 36 36 36 35 35 35 35 36 35 35 36 35 35 34 32 32 32 28 25 28 30 29 30 29 27 26 27 27 26 26 26 26
33 33 33 33 32 32 32 32 32 32 32 32 32 32 33 33 34 34 35 36 36 37 37 38 38 39 39 39 39 35 35 38 37 36 36 36 35 35 35 35 35 35 35 36 36 36 37 37 37 38 38 37 37 38 38 38 38 38 39 38 37 37 37 38 37 37 38 38 37 38 36 34 34 31 26 28 31 31 32 32 32 31 30 30 29 27 27 28
35 35 35 35 35 35 35 34 34 34 34 33 33 33 33 33 34 34 35 35 36 37 37 38 38 39 39 39 38 35 37 38 37 37 37 36 36 35 35 35 36 36 36 36 36 37 38 38 38 39 39 38 38 38 38 39 39 40 41 40 38 39 39 39 39 39 40 41 40 41 41 38 36 33 29 30 31 31 34 34 34 35 34 34 33 31 30 29
36 37 37 37 37 37 37 37 36 36 36 35 35 35 34 34 34 35 35 36 36 37 38 38 39 39 39 39 37 36 37 38 38 38 37 37 36 36 36 36 36 36 36 36 36 37 38 38 39 39 39 39 39 39 39 39 40 41 42 42 40 41 41 38 40 40 40 42 42 43 45 42 38 35 33 33 33 32 34 36 37 37 36 37 36 35 33 32
38 38 38 38 38 39 39 39 38 38 38 37 37 37 36 35 35 36 36 36 37 37 38 39 39 40 40 38 36 37 38 38 38 38 38 38 37 37 37 36 37 36 37 37 36 37 38 38 39 40 39 40 39 40 41 40 41 41 43 44 42 43 42 38 40 41 41 41 42 44 47 44 40 38 37 37 36 34 35 37 38 38 39 39 38 37 35 34
39 39 39 40 40 39 40 40 39 39 39 39 39 39 38 37 36 36 37 37 37 37 38 39 40 41 41 38 36 37 38 38 39 39 39 39 38 38 37 37 38 37 37 38 38 38 39 39 40 40 39 39 39 41 42 41 41 41 43 44 44 45 44 39 40 41 42 42 41 44 48 45 40 39 40 41 39 37 36 36 37 38 39 39 40 39 36 35
38 39 40 41 41 41 40 41 40 40 40 40 40 40 40 40 39 38 39 38 39 39 39 40 41 42 42 38 36 37 38 39 39 39 40 40 39 38 38 38 39 38 39 39 39 39 39 40 41 41 40 39 39 41 42 42 40 41 45 45 44 46 44 40 40 40 42 43 41 44 46 45 43 39 39 42 42 40 37 36 36 36 37 38 39 39 37 36
38 39 40 41 42 42 42 42 41 41 41 41 41 42 42 42 41 41 41 40 40 41 41 42 42 44 45 39 36 37 37 39 40 40 40 39 39 38 38 39 39 39 40 40 41 40 40 42 42 41 40 38 39 42 43 41 39 40 46 47 45 46 44 42 40 40 42 44 43 44 44 44 43 40 38 39 40 40 38 37 35 35 35 36 38 39 37 35
42 42 42 42 42 42 43 43 43 42 41 42 42 43 44 44 43 43 42 41 41 41 42 44 43 45 46 42 39 38 37 39 41 40 40 39 39 38 38 39 39 40 40 41 41 41 41 42 42 41 40 38 38 41 43 41 38 40 44 47 46 45 44 42 40 40 42 44 45 44 44 41 39 39 38 36 37 38 38 37 35 33 34 35 37 38 37 36
46 46 46 45 44 44 44 44 44 43 43 43 43 44 45 46 46 45 44 43 42 42 43 44 44 46 46 43 41 40 38 39 41 40 40 40 39 39 39 39 40 40 41 42 41 41 42 43 43 42 39 37 37 39 41 41 40 41 42 45 46 44 43 41 40 41 43 45 46 45 45 41 37 37 36 32 32 34 36 37 35 32 32 32 34 37 37 37
47 47 48 48 47 46 46 46 46 45 45 45 45 46 46 47 48 48 46 45 45 44 44 46 46 47 46 43 42 42 41 41 42 41 40 40 40 40 40 40 41 41 42 42 42 42 43 44 45 43 38 36 37 39 42 41 41 43 42 44 45 43 41 38 38 43 44 46 48 47 47 44 39 38 35 30 28 29 31 35 34 31 30 30 31 34 37 39
45 45 47 48 48 48 48 48 48 47 47 46 47 48 48 49 49 50 49 48 47 47 47 49 49 48 47 46 44 43 43 43 43 42 40 41 41 41 41 42 42 42 43 42 43 45 44 46 47 42 36 36 39 41 43 43 42 44 44 44 45 44 42 38 40 45 46 49 49 47 49 47 41 39 37 32 28 26 27 31 32 31 30 31 31 33 37 41
44 44 44 45 47 48 49 49 49 49 49 48 48 49 50 50 51 52 52 51 50 49 49 51 52 50 48 48 47 45 45 45 44 42 41 42 43 44 43 43 44 44 43 44 47 47 46 49 47 40 36 37 40 42 44 45 45 46 46 47 47 46 44 42 43 46 47 52 51 48 51 49 43 40 38 34 31 26 25 27 28 29 31 31 32 36 40 42
44 44 44 44 45 47 48 49 50 50 50 50 49 50 50 51 52 54 55 55 52 50 51 52 53 53 51 51 49 47 48 48 46 43 43 44 44 45 46 46 48 46 45 48 50 48 49 51 46 39 38 40 42 43 45 46 46 47 48 50 51 47 47 47 46 47 49 53 53 51 53 51 44 41 38 34 31 28 26 26 26 28 32 32 34 38 42 43
44 44 44 45 45 46 47 48 49 49 50 51 50 51 51 52 53 54 56 58 55 51 52 52 53 54 54 53 51 50 50 48 47 46 44 44 44 44 46 48 49 48 49 52 49 49 53 53 48 43 42 43 44 45 46 47 47 48 49 52 53 48 49 50 49 49 50 52 54 53 55 52 44 40 37 33 32 29 28 28 28 30 31 32 34 37 41 43
45 44 44 45 45 46 46 47 48 48 49 50 50 51 51 52 53 54 56 59 59 55 52 52 54 54 53 53 52 52 51 49 49 47 43 43 43 43 44 46 48 49 51 52 51 52 55 54 52 49 46 45 46 48 49 49 47 49 51 53 52 49 49 51 51 53 54 54 54 55 58 55 44 39 36 30 30 29 29 30 31 33 31 29 33 37 40 42
46 46 46 46 46 46 46 46 47 47 48 48 48 49 50 51 52 54 55 59 61 59 54 53 54 55 53 53 52 50 50 50 49 46 43 43 43 43 44 45 48 48 47 49 52 55 56 55 54 52 49 48 48 50 51 49 49 52 54 52 50 49 50 52 52 55 57 57 56 56 60 58 47 40 36 31 31 31 30 29 29 33 34 31 32 36 39 39
47 47 47 48 47 46 46 46 45 46 46 46 47 47 48 49 49 51 53 57 61 61 58 55 54 54 53 50 49 49 51 50 47 45 44 44 44 44 45 46 47 47 46 47 51 55 56 56 53 51 51 50 51 53 50 47 50 55 55 52 49 49 51 52 53 55 58 59 58 58 61 60 52 44 39 37 37 35 33 30 28 31 35 35 34 36 37 34
49 48 48 48 48 47 47 46 46 45 45 46 46 46 47 47 48 49 50 55 62 62 61 60 55 52 50 48 47 49 51 48 46 45 45 44 44 45 46 47 47 47 46 48 52 53 53 54 54 52 51 52 54 54 49 46 51 56 55 52 51 50 51 53 53 56 58 59 61 61 60 61 56 48 45 45 44 40 35 32 29 29 32 36 37 36 34 31
52 50 48 48 49 48 48 47 47 46 46 46 46 46 47 47 47 48 48 55 63 63 61 61 57 53 50 48 46 46 47 45 45 46 45 45 45 45 47 47 47 47 47 50 53 52 51 53 53 53 54 55 55 53 50 49 52 55 54 53 53 52 53 54 55 56 58 61 64 62 59 60 59 54 53 53 49 42 37 33 32 30 30 34 36 35 34 33
53 52 50 50 49 50 50 49 48 48 47 47 48 47 47 48 48 47 49 57 64 62 59 58 57 56 54 51 48 45 44 44 45 46 45 46 46 45 46 46 46 48 49 51 52 50 51 52 52 53 55 55 54 54 52 52 53 54 54 54 54 54 53 54 56 57 59 64 66 62 59 61 61 57 56 56 50 45 42 39 36 33 30 30 31 32 35 39
55 54 53 52 51 52 52 51 51 51 50 50 50 49 50 50 49 49 54 61 63 60 58 57 57 57 55 54 52 48 45 45 45 45 45 46 46 46 47 47 46 48 49 52 52 49 49 51 52 53 52 51 52 53 53 53 54 54 54 54 54 54 54 56 57 58 62 67 65 60 58 61 63 59 56 55 53 50 48 45 42 37 30 28 30 31 33 39
55 55 54 52 51 53 53 53 54 54 54 53 53 53 53 53 52 55 60 61 60 58 56 56 56 56 55 55 55 54 51 48 47 47 47 46 47 47 49 49 48 49 49 51 52 50 50 52 52 51 49 49 50 50 52 53 53 52 52 53 53 54 55 57 59 60 64 68 64 60 58 61 63 60 57 57 55 52 51 51 48 40 31 29 30 32 33 38
54 55 55 53 51 51 52 53 54 56 56 56 56 57 56 57 57 57 57 57 59 58 55 55 56 56 57 57 56 56 55 53 51 51 50 49 50 49 50 52 52 53 53 53 52 51 52 53 52 51 49 47 46 48 50 50 50 49 50 51 52 54 57 60 62 63 65 66 62 60 61 63 63 58 56 55 54 52 52 54 53 43 34 30 30 33 36 39
54 53 53 53 52 51 51 52 53 54 55 56 58 57 56 59 57 52 53 56 59 59 56 56 57 57 58 58 58 57 57 57 56 55 54 53 53 52 50 51 52 54 54 53 53 54 56 55 53 52 49 45 45 46 46 46 47 49 51 51 51 55 58 60 62 63 65 63 60 60 63 64 62 57 56 54 53 54 54 55 57 48 36 31 32 37 39 40
53 53 52 52 52 52 52 53 53 52 53 55 57 57 57 59 54 49 53 56 56 57 57 57 57 58 59 59 59 59 59 60 59 58 58 56 55 54 52 50 49 50 51 51 53 55 57 56 54 52 49 47 48 46 44 45 47 50 51 51 53 56 57 57 59 62 64 63 61 63 66 64 61 60 60 58 57 58 56 55 57 52 41 36 37 38 38 37
54 54 55 55 54 53 53 54 54 53 53 54 57 59 60 60 54 52 56 58 58 60 60 60 59 59 60 59 60 58 58 59 60 60 61 61 59 57 55 53 49 48 49 51 52 53 56 56 54 54 53 51 50 48 47 48 50 51 51 54 56 56 53 54 58 60 62 64 64 65 68 65 62 62 61 59 59 60 59 57 57 53 43 38 37 35 34 34
58 57 58 58 57 57 57 57 55 55 54 55 60 62 60 57 56 57 61 61 62 64 64 64 62 61 62 61 61 60 59 61 62 63 64 64 63 60 59 58 55 53 53 53 52 53 56 56 52 54 55 52 52 51 49 50 51 52 54 56 55 53 53 57 61 60 61 66 66 66 68 66 63 61 58 58 58 58 58 58 57 49 38 34 33 32 32 33
63 63 62 61 59 59 60 59 59 60 59 59 64 65 60 58 58 60 62 62 63 65 67 68 66 65 65 64 64 64 64 64 65 66 66 65 66 63 61 60 60 59 56 54 53 52 55 56 51 51 54 54 54 54 51 51 52 53 53 51 51 53 55 59 63 63 63 67 68 67 69 67 62 59 58 59 60 59 60 59 55 45 34 31 31 31 32 32
67 68 67 64 62 62 61 60 61 63 64 65 67 66 63 62 61 62 63 63 63 64 67 69 69 68 68 67 67 67 68 69 68 69 68 68 69 67 64 64 63 62 59 58 58 55 56 58 55 54 57 58 58 57 55 53 53 53 50 49 51 55 57 59 62 63 63 67 69 67 67 65 61 58 58 59 61 64 65 62 57 47 37 32 32 33 33 32
71 72 71 68 68 68 65 63 63 64 66 68 69 68 65 62 60 62 64 64 64 65 68 70 71 71 72 71 71 70 70 70 70 72 71 71 71 69 68 67 66 66 64 62 64 61 59 62 62 59 60 61 60 59 59 57 57 57 56 56 56 57 59 61 62 62 62 65 68 65 64 63 60 59 59 60 62 64 66 65 62 56 46 37 33 33 35 35
74 76 75 73 73 74 73 70 69 68 70 72 72 70 66 64 63 63 64 65 65 67 69 71 71 71 72 71 70 68 68 70 72 73 74 73 72 72 71 70 68 67 65 64 64 63 60 62 63 61 60 62 62 61 60 60 61 62 63 62 60 60 60 61 62 63 64 67 68 67 66 64 62 62 62 62 62 63 63 63 61 59 54 45 37 36 38 39
76 78 78 77 77 78 77 76 75 74 74 74 73 73 71 70 68 66 67 68 69 69 71 72 72 71 71 71 71 69 70 73 74 74 76 75 74 74 73 71 69 68 69 67 66 65 63 64 65 63 63 64 65 64 63 63 64 65 66 64 63 63 62 64 67 67 68 72 72 72 73 68 63 63 62 62 62 62 61 60 58 58 57 51 46 43 42 43
78 79 79 78 78 79 78 79 79 78 78 76 74 73 73 73 72 71 71 71 72 72 72 72 71 71 72 72 71 70 70 72 72 73 75 75 74 74 73 73 73 73 72 70 67 65 63 64 66 66 65 65 64 63 63 63 64 66 68 66 64 64 64 67 72 69 69 74 73 72 76 72 64 61 59 61 63 63 63 60 58 59 58 55 51 48 47 48
80 80 80 78 79 80 79 81 82 83 84 83 80 77 74 72 70 69 70 72 75 76 75 74 73 72 72 72 70 70 71 72 72 72 72 73 72 70 70 70 69 68 67 67 66 64 64 66 68 68 68 67 65 64 63 63 64 66 67 63 61 62 63 67 69 68 70 73 71 72 77 74 66 60 59 61 63 63 63 63 63 63 60 57 54 50 51 55
82 82 82 81 80 80 81 82 84 85 86 86 85 84 82 80 77 71 69 70 73 76 78 78 78 77 77 76 76 78 77 77 75 70 67 68 66 63 61 60 59 58 60 61 62 62 62 64 66 67 67 66 63 61 61 62 63 63 61 59 59 61 62 65 65 66 69 70 67 71 78 74 65 61 61 62 63 63 63 64 65 65 62 59 56 54 56 59
84 84 84 84 84 84 84 83 83 84 85 85 86 86 86 87 86 82 79 78 78 81 83 84 83 83 82 80 81 82 82 83 80 76 74 74 73 70 66 62 59 57 57 58 58 60 60 61 62 62 62 63 59 55 55 57 60 62 61 60 61 61 63 65 65 67 70 69 69 74 78 74 65 60 61 63 63 64 64 64 65 65 63 61 60 60 61 62
85 86 86 86 87 88 88 86 84 85 85 85 87 88 87 87 87 84 85 87 87 87 89 90 89 88 86 83 80 79 79 79 79 80 82 83 84 83 78 73 67 61 59 59 60 60 62 66 65 60 58 60 60 57 56 58 62 65 64 64 64 64 64 65 68 71 72 72 76 78 78 77 71 64 63 64 64 66 67 67 67 66 64 64 64 63 63 63
85 87 87 87 88 89 90 90 89 88 87 85 87 88 87 87 87 86 86 88 87 87 89 91 90 89 89 88 86 85 83 81 80 82 85 85 85 85 82 78 75 72 70 69 69 68 68 70 68 62 60 60 60 59 57 57 60 63 63 63 65 65 66 66 69 72 71 75 81 81 78 79 77 70 66 65 64 67 69 69 69 68 67 67 67 65 63 63
85 86 86 86 88 89 90 91 91 91 90 89 90 90 88 87 88 87 87 87 87 88 90 92 91 90 89 89 90 92 92 91 91 90 89 89 88 86 83 79 79 80 78 75 74 73 73 73 70 68 69 68 66 65 61 58 60 60 59 59 59 60 62 64 67 68 69 75 80 77 74 76 74 69 67 66 65 66 67 68 69 68 67 67 68 67 64 64
84 84 85 85 87 88 88 89 90 91 91 90 89 90 90 90 90 89 87 87 89 91 93 95 95 93 91 91 92 94 94 93 94 92 91 92 91 88 85 82 79 77 75 74 73 72 77 80 76 75 79 80 78 75 72 69 68 66 64 62 61 61 60 62 66 68 69 73 74 70 69 71 69 67 67 66 66 68 69 70 70 68 67 68 68 68 67 67
82 83 84 85 85 86 86 86 87 87 89 88 87 87 87 88 90 90 89 89 90 90 92 95 96 95 95 96 97 99 98 97 96 95 92 93 94 93 92 89 86 81 80 82 83 83 87 90 85 84 89 91 88 85 84 84 84 83 80 77 77 76 70 65 66 68 68 70 69 67 70 71 65 61 62 62 63 65 67 68 69 70 71 71 70 70 68 66
80 81 83 84 85 85 84 84 85 86 87 88 88 88 87 85 86 88 89 89 88 86 88 91 92 93 96 97 99 100 100 100 100 99 98 99 99 98 97 96 94 92 89 89 89 89 90 90 87 86 90 93 94 92 92 93 93 91 90 89 89 87 82 78 76 74 75 75 74 74 76 72 63 60 62 62 61 60 60 59 61 66 67 67 67 67 63 58
79 80 82 83 85 85 83 83 84 85 87 87 87 88 87 86 85 85 87 90 89 88 89 88 87 88 90 92 95 97 98 99 100 100 99 99 97 94 91 89 88 88 88 88 87 87 85 84 83 84 86 89 91 92 92 91 86 85 89 92 91 90 89 88 87 86 86 84 84 84 83 76 71 71 71 69 66 64 62 59 58 59 58 56 57 58 56 54
Wind_Direction
261 262 262 263 263 264 265 266 268 270 272 274 276 278 279 281 282 284 286 287 288 289 289 289 289 290 290 290 289 288 287 285 285 285 286 288 290 291 293 295 296 298 298 300 301 302 304 307 309 311 313 313 314 314 314 315 315 316 318 319 320 321 320 321 321 321 323 323 323 321 320 320 318 314 311 310 309 308 308 310 311 306 309 311 310 312 310 309
261 262 263 264 264 264 265 266 267 268 270 272 274 276 277 279 280 281 282 283 283 284 285 286 286 287 287 288 288 288 287 285 284 283 284 285 285 287 289 290 291 293 293 295 295 295 295 297 298 301 303 304 306 308 309 310 311 312 313 315 316 317 317 319 319 319 320 318 319 318 318 318 319 318 313 313 312 310 315 318 311 309 313 312 309 311 310 307
261 263 263 264 265 266 266 266 267 267 268 270 271 273 275 277 278 280 281 281 281 281 281 281 282 282 283 284 284 285 285 284 283 282 283 283 283 283 284 285 286 287 288 289 290 291 291 292 293 293 294 295 298 300 302 303 305 307 308 310 312 312 313 316 315 315 316 315 315 315 315 315 316 318 314 313 312 311 322 321 312 313 316 317 313 314 315 310
261 262 263 264 265 266 267 267 267 268 268 268 269 271 272 274 275 277 279 280 280 281 281 280 280 279 279 279 279 280 280 280 280 280 281 280 280 281 281 281 282 283 283 284 285 287 288 289 290 290 290 291 293 294 296 298 298 301 304 305 307 307 307 309 310 310 310 311 311 311 313 313 312 316 314 313 310 312 323 320 313 316 316 318 316 314 316 313
261 262 263 264 265 265 266 267 267 267 268 268 269 269 270 271 272 274 275 277 278 279 280 280 280 280 280 279 279 278 278 279 280 279 279 279 279 278 278 279 279 280 280 281 282 284 286 287 288 289 290 290 291 292 294 296 296 298 301 302 302 304 304 304 305 306 305 306 307 307 309 309 309 312 312 310 308 311 319 316 313 315 315 317 316 315 316 315
262 263 264 264 265 265 266 267 267 268 268 269 269 269 270 271 271 272 273 274 275 277 278 279 279 280 280 280 280 280 280 281 280 280 280 279 278 278 278 278 278 279 279 280 282 284 285 286 287 288 290 291 292 293 293 294 294 296 300 300 299 301 301 300 301 302 302 302 302 303 305 305 305 308 309 308 307 310 314 314 313 312 312 313 314 314 315 315
264 264 265 265 266 266 267 267 268 269 269 270 270 270 271 271 272 272 273 273 274 275 276 277 277 278 279 280 280 281 282 283 281 281 281 281 280 280 280 279 279 279 280 281 282 283 285 287 288 288 290 291 293 294 294 295 294 295 298 298 298 299 300 298 299 300 299 299 299 299 301 302 300 304 308 305 304 307 309 312 312 311 311 310 312 313 312 312
264 265 266 266 267 268 269 269 269 270 270 271 272 272 273 273 273 274 274 274 274 275 275 276 276 277 277 278 279 280 283 282 282 282 282 282 282 282 282 281 281 281 281 282 283 284 285 286 287 287 288 290 292 294 294 295 295 296 296 296 297 298 298 297 298 300 299 298 297 296 297 298 297 301 307 303 301 304 305 307 309 310 310 308 310 311 310 310
264 265 265 266 267 268 269 269 270 270 271 271 272 273 274 274 275 275 275 276 275 275 275 276 276 276 276 277 277 280 282 281 281 282 283 283 283 283 283 282 282 282 282 283 283 284 285 285 287 287 288 289 291 292 294 295 295 295 294 294 295 295 295 295 297 299 298 297 297 295 294 294 294 298 305 302 300 302 302 303 304 305 306 306 306 307 307 307
264 265 266 266 267 267 268 269 269 270 270 270 271 272 273 274 275 275 276 276 277 276 276 276 276 276 276 276 277 280 280 279 281 282 282 283 283 283 283 282 282 283 283 283 284 284 285 286 287 287 288 289 290 291 293 294 295 295 293 293 294 294 293 293 295 296 295 294 295 295 294 292 292 296 301 299 298 301 300 301 303 303 303 303 303 303 303 304
263 264 265 266 267 268 268 268 269 269 269 270 270 271 272 273 274 275 275 276 276 277 277 277 277 277 277 277 279 280 279 279 280 281 281 282 282 282 282 282 282 282 282 283 284 285 285 286 287 287 288 289 290 291 292 294 295 294 293 293 294 293 292 293 294 294 293 292 292 292 291 290 291 294 296 293 294 297 297 298 300 301 301 300 300 300 299 300
262 263 264 265 266 267 267 268 268 269 269 270 270 270 270 271 273 274 275 275 276 277 278 278 278 278 278 279 281 282 281 281 282 281 281 280 280 281 281 281 281 281 282 282 283 284 285 286 286 287 288 289 290 291 291 292 292 293 293 292 292 291 291 293 293 292 292 292 291 290 287 288 291 293 292 290 291 292 293 294 296 297 297 297 297 296 296 296
263 263 263 264 265 265 266 266 267 268 269 269 269 269 269 270 270 272 274 275 276 276 277 278 278 278 278 280 283 283 283 283 283 282 282 281 280 281 281 281 281 281 282 282 282 283 284 285 285 286 288 289 291 291 291 292 291 292 293 292 291 289 289 292 291 290 290 289 289 288 285 286 290 291 289 288 287 287 288 290 292 294 295 295 294 293 293 292
264 265 265 265 265 265 266 266 266 266 267 268 269 269 269 269 270 271 273 274 276 276 277 277 278 278 278 279 282 283 284 284 283 283 282 282 282 282 282 283 282 282 282 282 282 282 283 284 285 286 288 290 292 292 292 292 292 293 292 291 291 289 288 290 289 290 289 287 287 286 285 286 288 288 288 288 287 286 286 287 288 289 291 293 292 291 291 290
267 266 266 266 266 266 266 266 266 266 266 267 268 268 269 269 270 271 272 274 276 277 278 278 278 278 277 278 281 281 282 283 283 283 282 283 284 284 284 284 283 283 283 282 282 282 283 284 285 286 288 290 292 292 292 292 295 296 292 290 291 289 289 289 288 289 288 287 286 284 285 286 286 286 287 288 288 289 287 286 285 286 287 289 289 289 289 289
269 268 268 267 266 266 266 267 267 267 266 266 267 268 268 269 270 270 271 273 275 277 278 278 279 279 278 279 280 279 280 281 281 281 283 284 284 284 285 284 284 284 283 283 283 284 285 285 285 286 288 290 292 293 293 294 297 296 292 292 291 290 291 290 289 289 288 288 287 285 285 285 287 288 287 287 289 290 290 289 288 287 286 286 286 285 285 285
271 270 269 268 267 267 266 266 266 267 267 267 267 267 268 269 270 270 270 272 273 275 276 278 279 278 278 280 279 278 279 279 279 281 282 282 283 284 283 283 284 284 284 284 284 285 286 285 285 286 287 291 293 294 294 295 296 293 292 294 294 294 294 293 293 292 291 290 288 287 285 284 285 286 287 289 291 291 291 291 292 291 288 286 286 286 285 283
272 270 269 268 268 267 267 266 266 266 266 267 267 267 268 269 269 269 270 270 271 273 274 276 277 277 278 279 279 278 277 277 278 280 281 282 283 283 283 284 284 284 284 284 285 286 285 285 284 284 287 292 294 294 293 293 293 292 293 295 296 298 298 299 300 298 295 293 291 290 288 285 284 283 285 288 290 291 291 292 292 290 287 285 286 287 286 284
271 269 268 267 267 267 267 267 266 266 265 266 266 267 268 269 269 270 270 270 271 272 273 273 274 276 278 278 278 278 277 276 277 278 280 282 283 283 284 284 284 284 284 284 286 285 284 283 281 282 289 294 294 291 290 291 292 292 293 293 295 296 297 302 302 297 296 293 291 292 290 288 286 285 286 287 286 286 287 288 288 288 286 285 284 284 287 286
269 268 267 265 265 266 266 267 267 267 266 266 266 266 267 268 269 270 270 270 270 271 271 272 273 273 276 278 278 278 278 277 276 278 280 282 282 283 283 283 284 283 284 286 285 282 282 281 280 284 292 293 290 288 289 290 290 290 291 291 292 292 296 301 298 294 294 292 289 290 289 286 285 285 287 288 286 282 281 282 285 289 290 289 287 287 287 288
269 268 267 266 265 265 265 266 266 267 267 266 266 266 266 267 268 269 269 269 268 269 271 272 273 273 274 275 276 277 278 278 278 280 282 282 282 282 283 284 283 282 285 285 281 280 282 279 280 288 292 289 286 287 288 289 290 290 290 290 289 290 294 297 294 293 293 290 289 289 287 285 284 284 286 288 287 282 278 277 283 289 289 290 290 290 289 290
268 268 268 268 267 266 266 266 266 266 267 267 266 266 267 267 268 269 269 269 267 268 269 270 272 274 274 273 275 276 277 278 281 282 282 282 283 284 284 282 281 282 283 279 279 282 281 278 282 288 287 283 283 285 286 288 289 289 290 290 289 291 295 294 292 292 291 289 290 289 287 284 283 283 284 286 286 282 280 281 285 287 288 291 292 292 292 292
267 268 268 268 268 268 267 267 267 266 266 267 267 267 267 267 268 269 270 271 270 267 267 269 270 272 273 274 275 276 276 278 281 281 282 283 285 285 283 282 281 280 278 276 279 281 278 278 282 283 281 281 282 283 283 284 285 287 288 288 289 293 295 293 292 291 289 288 289 289 287 284 283 282 282 283 283 282 285 289 289 286 287 290 291 292 293 293
266 267 267 268 268 268 268 268 267 267 267 267 267 267 267 267 268 269 269 271 272 270 268 269 270 270 271 272 273 275 277 279 280 281 283 284 284 284 283 284 281 278 276 277 278 276 275 277 279 279 279 280 280 280 281 282 283 284 284 286 289 293 292 291 292 291 289 288 288 289 287 284 284 283 282 281 279 280 283 285 285 286 289 290 290 292 294 294
267 267 268 268 268 268 268 267 267 268 268 268 268 268 268 268 269 269 270 271 272 271 269 268 269 270 270 271 273 275 277 278 280 283 284 284 283 283 282 281 279 279 279 278 276 273 272 273 275 278 279 279 278 277 278 280 282 282 282 285 288 289 289 289 290 289 289 289 289 289 288 287 286 285 284 283 281 281 280 279 284 291 295 295 294 295 296 294
266 267 268 269 268 268 267 267 267 267 268 268 268 269 269 269 270 270 271 271 272 272 271 268 266 268 270 272 275 276 276 279 282 284 284 283 282 281 279 278 278 280 280 278 275 272 271 272 274 275 276 276 275 274 276 280 281 280 281 284 285 286 286 287 287 287 287 288 289 288 288 290 291 289 290 290 287 284 281 283 290 294 298 301 300 298 295 292
266 267 268 268 268 268 267 267 266 266 267 268 268 269 269 270 271 271 272 272 272 272 273 271 270 270 271 273 274 274 276 281 284 283 281 280 280 279 278 278 279 279 279 277 274 274 275 275 275 274 274 273 272 274 277 279 278 278 280 283 283 283 283 283 285 285 286 287 286 285 287 291 294 295 296 294 289 287 287 290 294 294 298 302 301 296 289 285
268 269 268 268 267 267 267 267 266 266 266 267 268 268 269 270 271 272 273 272 271 272 274 276 278 278 277 276 274 275 278 281 281 279 279 279 279 279 278 279 278 277 276 274 274 277 278 277 276 275 273 272 272 274 276 275 275 277 279 280 280 281 281 282 283 283 285 285 283 283 286 289 293 297 296 292 289 290 292 293 292 294 298 300 297 292 287 285
269 269 269 268 267 266 265 265 266 265 265 266 267 267 269 269 270 271 271 269 271 273 277 280 283 284 284 282 280 278 278 277 276 277 279 279 278 278 277 277 276 275 275 274 274 276 277 278 279 278 275 275 275 274 274 274 274 275 276 277 278 279 280 281 281 282 282 280 280 283 286 288 291 293 291 290 292 295 295 293 293 295 300 299 292 287 286 289
268 269 269 269 267 265 263 263 264 264 264 265 266 268 268 268 270 270 268 268 272 276 280 282 283 285 286 287 286 283 279 276 276 276 277 278 278 278 277 275 275 274 273 274 274 275 276 277 278 279 280 280 277 275 273 272 272 273 274 275 276 277 278 278 278 279 278 278 280 283 286 288 289 288 289 291 295 297 297 297 295 295 298 296 289 283 283 287
267 268 269 268 268 266 264 263 263 263 263 265 266 267 267 268 268 267 267 272 276 277 280 282 283 285 286 286 285 285 284 282 279 277 276 276 276 276 276 276 276 274 273 273 274 276 275 274 275 278 279 279 278 276 274 272 272 272 273 274 275 275 275 274 274 274 274 278 283 286 286 285 283 284 289 293 296 299 300 298 294 294 296 294 287 284 283 284
267 267 267 266 266 267 266 263 263 264 265 267 267 267 268 267 266 266 271 276 277 278 281 282 283 284 284 284 284 285 286 284 282 280 278 275 273 272 272 273 274 275 275 275 276 277 274 272 274 275 275 279 281 279 276 274 273 272 271 271 272 272 272 271 272 272 275 280 286 287 285 281 280 283 287 291 296 299 298 295 293 294 298 296 289 287 286 283
266 267 267 266 265 266 266 265 264 266 267 269 269 269 269 268 268 270 273 274 275 279 281 280 280 281 282 284 284 284 284 283 282 281 279 277 276 274 272 271 272 274 276 277 276 275 273 272 273 274 276 279 278 277 276 275 272 269 268 268 268 269 269 269 272 275 279 283 286 285 281 280 282 287 289 291 294 293 292 292 293 296 301 300 293 289 285 280
263 264 265 265 264 264 265 265 266 268 269 269 270 269 268 267 268 271 272 272 274 276 277 277 278 280 281 282 280 280 282 282 283 283 281 280 278 277 276 274 272 272 275 275 273 274 275 274 273 275 275 273 271 273 275 274 271 268 268 266 265 266 267 269 273 277 280 282 282 280 279 281 286 290 293 295 294 292 292 293 293 297 303 302 293 287 283 278
262 262 262 263 263 263 264 264 264 266 267 268 269 268 266 266 267 269 270 272 274 274 275 276 276 276 277 278 277 278 280 281 282 283 282 280 278 277 276 275 272 272 273 273 273 275 277 274 272 273 272 269 269 270 270 271 270 270 268 266 266 267 269 270 273 275 276 277 277 278 279 283 287 289 291 293 292 293 295 295 293 297 303 299 291 286 282 278
260 261 261 262 262 262 263 264 263 263 263 265 266 265 265 266 267 268 269 271 273 274 275 274 273 273 274 274 275 276 278 279 280 280 279 279 278 276 275 275 273 273 274 274 273 274 274 271 268 270 272 270 269 269 268 270 270 269 268 268 271 273 273 272 271 271 271 272 274 278 279 282 286 287 288 289 290 292 293 292 293 298 302 297 289 286 281 275
260 260 259 260 261 261 261 263 263 263 262 262 263 263 263 263 264 266 268 269 271 272 273 273 272 272 273 273 273 274 276 277 277 277 278 278 277 276 277 277 276 276 277 276 275 273 273 271 266 267 271 271 271 271 269 268 268 268 269 273 277 277 275 273 272 271 270 270 273 275 277 280 283 285 288 290 292 291 290 290 292 297 301 297 288 282 275 270
260 260 259 258 259 260 261 262 263 264 263 262 263 263 262 263 263 265 267 268 269 270 271 272 271 271 272 273 273 274 275 276 276 276 276 276 275 275 277 279 279 278 279 279 276 273 273 273 269 267 269 269 270 271 270 268 268 270 274 276 277 277 276 274 272 272 272 271 272 273 275 277 279 281 285 288 289 289 290 291 293 294 297 295 286 277 273 270
262 261 260 258 258 259 260 261 262 263 263 263 263 261 261 263 264 264 264 266 267 268 269 270 270 271 271 272 272 273 274 275 275 275 275 274 273 273 275 278 279 279 279 280 279 276 274 273 270 268 268 269 268 268 269 270 274 276 277 275 273 272 273 273 272 272 272 272 273 274 274 275 278 280 282 283 283 285 288 290 293 294 294 291 283 275 274 275
263 263 261 260 260 260 260 261 261 261 261 262 263 263 262 262 262 262 264 266 267 267 268 269 270 270 270 270 271 271 273 275 276 276 275 274 273 273 273 276 278 279 278 278 277 277 275 273 273 273 271 270 269 269 270 272 274 275 274 272 271 270 270 270 269 271 272 273 274 275 274 274 277 279 279 280 281 283 285 287 291 293 292 290 285 278 277 280
263 263 263 262 262 262 262 262 261 261 261 262 263 265 264 263 262 263 265 266 266 266 267 267 267 267 268 268 269 270 272 274 275 275 274 274 274 274 274 276 277 278 278 277 276 276 276 276 275 273 271 271 272 273 274 273 272 271 271 270 270 270 269 269 270 273 275 275 274 275 275 274 274 275 277 280 281 282 283 284 286 288 289 291 289 283 280 282
263 263 263 263 263 263 263 262 260 260 260 261 261 263 264 265 264 263 263 264 264 264 265 265 264 264 265 266 268 269 271 274 274 274 274 274 274 275 276 276 277 277 277 278 277 276 276 275 273 272 272 272 273 273 274 272 271 269 269 269 271 271 271 271 273 276 276 274 273 273 272 272 274 276 278 280 281 282 283 283 284 286 288 290 289 285 282 283
264 264 264 263 263 263 262 261 261 260 261 261 260 260 261 262 262 261 261 261 261 262 263 264 265 265 266 267 268 269 270 272 272 272 272 271 272 273 274 274 275 276 276 277 278 278 276 274 272 271 271 270 269 270 271 271 271 270 270 272 274 273 273 272 273 275 273 270 271 271 269 271 276 277 275 276 278 279 282 284 286 286 286 287 286 283 280 281
263 264 264 263 263 262 262 262 263 263 263 263 262 260 260 259 258 258 259 259 260 261 262 263 265 266 267 268 268 269 269 268 267 266 267 268 269 270 270 269 269 271 274 276 277 276 274 272 271 270 269 268 268 267 267 268 268 268 270 271 271 271 271 271 272 272 270 268 269 269 267 269 275 276 273 274 275 276 280 282 284 284 283 284 283 279 276 277
263 263 263 263 263 262 262 262 263 263 263 263 263 262 261 260 259 258 258 258 259 262 263 263 265 266 268 269 269 268 267 266 265 264 264 267 270 270 270 267 264 264 267 270 272 273 272 271 271 273 273 272 268 265 264 264 263 262 264 266 266 267 268 269 270 270 269 269 267 267 268 271 273 272 271 274 277 278 280 280 279 281 281 281 280 277 276 277
262 263 262 262 263 262 262 262 262 262 262 263 263 263 262 261 261 260 259 258 258 260 262 264 264 265 266 267 267 266 264 264 264 264 265 267 269 272 272 269 264 262 262 263 268 271 271 269 268 272 277 274 268 265 263 260 259 260 262 264 264 264 265 267 268 268 269 271 269 269 272 275 274 272 272 275 277 278 278 278 278 279 279 278 277 276 276 279
263 263 263 263 263 263 262 262 262 262 262 262 262 262 262 262 262 261 260 259 259 259 261 262 263 263 264 265 265 266 266 266 267 269 269 269 270 272 272 269 265 265 265 266 268 269 268 267 266 268 272 270 266 265 262 258 257 259 260 261 261 262 263 264 265 266 269 272 272 272 275 277 278 278 277 277 277 277 277 278 278 277 276 276 275 275 275 277
264 264 264 264 264 263 263 262 262 263 263 263 263 262 262 261 261 261 261 261 260 260 260 261 261 262 263 264 265 266 267 268 269 270 271 272 272 271 270 267 266 266 266 266 266 265 266 266 266 266 268 268 268 268 265 261 260 259 260 262 262 263 265 266 266 268 270 272 274 276 277 278 279 280 280 280 280 278 275 275 274 274 274 274 275 274 272 272
265 265 264 264 264 264 265 264 264 264 264 265 266 265 265 264 263 262 261 260 259 259 259 260 261 261 263 264 265 266 266 267 268 269 270 272 271 270 268 266 264 263 263 264 263 263 267 270 270 270 272 272 271 271 270 269 267 264 263 264 266 267 267 269 271 271 271 272 275 278 278 276 276 278 279 281 281 277 274 273 273 273 273 272 272 272 271 270
264 264 264 264 264 265 265 265 266 265 265 265 266 266 267 267 265 264 263 262 261 260 259 260 261 261 262 263 263 265 265 267 268 268 269 270 269 269 268 268 266 264 263 265 267 268 272 274 274 275 277 275 272 272 273 274 274 274 271 270 272 272 271 270 272 273 273 275 277 279 279 276 275 278 281 281 280 279 278 277 276 275 274 272 271 270 268 267
264 264 264 264 264 264 264 265 265 265 265 265 265 266 267 267 267 267 266 265 264 263 262 262 262 262 262 262 262 263 264 266 267 267 267 269 270 270 271 271 272 271 270 270 273 274 276 277 277 278 279 277 275 275 275 277 279 278 276 275 276 276 276 277 276 275 275 276 277 278 278 277 278 281 282 279 280 283 286 286 283 279 274 271 268 265 262 262
265 265 265 265 264 263 263 264 264 264 264 265 266 266 266 266 266 266 266 266 266 266 266 266 266 264 263 263 263 263 264 265 266 267 267 269 270 270 271 273 274 275 275 275 275 276 277 278 278 278 278 278 278 278 278 279 277 275 276 278 279 279 281 282 281 279 278 278 277 278 279 280 281 282 283 283 285 286 287 289 287 279 268 261 259 259 260 263
Height
5883 5883 5884 5884 5884 5884 5885 5885 5885 5885 5885 5885 5885 5885 5885 5885 5885 5885 5885 5885 5885 5885 5884 5884 5884 5884 5884 5884 5884 5884 5884 5883 5883 5883 5883 5882 5882 5881 5881 5880 5880 5879 5879 5878 5877 5877 5876 5875 5874 5874 5873 5872 5872 5871 5870 5870 5869 5868 5867 5866 5866 5865 5864 5863 5863 5862 5861 5861 5861 5860 5859 5858 5858 5856 5855 5854 5853 5853 5852 5852 5851 5850 5849 5849 5848 5848 5848 5846
5881 5882 5882 5882 5882 5883 5883 5883 5883 5883 5883 5883 5883 5883 5883 5883 5883 5883 5883 5883 5883 5883 5883 5883 5882 5882 5882 5882 5882 5882 5882 5882 5881 5881 5881 5881 5880 5880 5879 5879 5878 5878 5877 5876 5876 5875 5875 5874 5873 5873 5872 5871 5871 5870 5869 5869 5868 5867 5866 5865 5865 5864 5863 5862 5861 5861 5860 5860 5859 5859 5858 5857 5856 5856 5854 5853 5852 5851 5851 5851 5850 5849 5849 5848 5847 5847 5846 5845
5879 5880 5880 5880 5880 5880 5881 5881 5881 5881 5881 5881 5881 5881 5881 5881 5881 5881 5881 5881 5881 5881 5881 5881 5881 5881 5880 5880 5880 5880 5880 5880 5879 5879 5879 5879 5878 5878 5877 5877 5876 5876 5875 5875 5874 5873 5873 5872 5872 5871 5871 5870 5869 5869 5868 5867 5866 5866 5865 5864 5864 5863 5862 5862 5861 5860 5859 5858 5858 5857 5857 5856 5855 5855 5853 5852 5851 5850 5851 5850 5849 5848 5848 5847 5846 5845 5845 5844
5877 5877 5877 5878 5878 5878 5878 5878 5878 5879 5879 5879 5879 5879 5879 5879 5879 5879 5879 5879 5879 5879 5879 5879 5879 5879 5878 5878 5878 5878 5878 5878 5877 5877 5877 5877 5876 5876 5876 5875 5875 5874 5873 5873 5872 5871 5871 5870 5870 5869 5869 5868 5868 5867 5866 5865 5865 5864 5863 5863 5862 5861 5861 5861 5860 5859 5858 5857 5856 5856 5855 5854 5853 5853 5852 5850 5849 5849 5850 5849 5847 5847 5846 5846 5844 5843 5843 5843
5874 5875 5875 5875 5875 5875 5876 5876 5876 5876 5876 5876 5876 5876 5876 5876 5876 5877 5877 5877 5877 5877 5877 5877 5877 5876 5876 5876 5876 5876 5876 5876 5875 5875 5875 5874 5874 5874 5873 5873 5872 5872 5871 5870 5869 5869 5868 5868 5867 5867 5866 5866 5866 5865 5865 5864 5863 5863 5862 5861 5860 5860 5859 5859 5858 5857 5856 5856 5855 5854 5854 5853 5852 5851 5850 5849 5847 5847 5848 5847 5846 5845 5845 5845 5844 5842 5841 5841
5872 5872 5872 5872 5873 5873 5873 5873 5873 5873 5873 5873 5873 5873 5873 5874 5874 5874 5874 5874 5874 5874 5874 5874 5874 5874 5874 5874 5874 5874 5874 5873 5873 5873 5872 5872 5872 5871 5871 5871 5870 5870 5869 5868 5867 5867 5866 5865 5865 5864 5864 5863 5863 5862 5862 5862 5861 5861 5860 5859 5858 5858 5857 5856 5856 5856 5854 5854 5853 5852 5852 5851 5850 5850 5848 5846 5845 5845 5845 5844 5844 5843 5843 5842 5842 5841 5840 5839
5869 5869 5869 5870 5870 5870 5870 5870 5870 5870 5870 5870 5870 5870 5870 5870 5870 5870 5871 5871 5871 5871 5871 5871 5871 5871 5871 5871 5871 5871 5872 5870 5870 5871 5870 5869 5869 5869 5869 5868 5868 5867 5867 5866 5865 5864 5864 5863 5862 5862 5861 5860 5860 5859 5859 5859 5858 5858 5858 5856 5856 5856 5855 5853 5853 5853 5852 5851 5851 5850 5850 5849 5848 5848 5847 5844 5843 5843 5842 5842 5841 5840 5840 5839 5839 5838 5838 5837
5866 5866 5867 5867 5867 5867 5867 5867 5868 5867 5867 5867 5867 5867 5867 5867 5867 5867 5867 5867 5867 5867 5867 5867 5868 5868 5867 5868 5868 5869 5869 5867 5866 5868 5867 5867 5867 5866 5866 5866 5865 5865 5864 5863 5863 5862 5861 5861 5860 5859 5859 5858 5857 5856 5855 5855 5855 5855 5855 5854 5853 5853 5852 5851 5850 5850 5849 5848 5848 5847 5847 5846 5845 5846 5845 5841 5841 5841 5839 5839 5838 5838 5837 5836 5836 5835 5834 5834
5863 5863 5864 5864 5864 5865 5865 5865 5865 5865 5865 5864 5864 5864 5864 5864 5864 5864 5863 5864 5863 5863 5863 5863 5864 5864 5864 5864 5865 5866 5866 5864 5863 5864 5864 5864 5863 5863 5863 5863 5862 5862 5861 5861 5860 5859 5858 5858 5857 5856 5856 5855 5854 5853 5852 5852 5852 5852 5851 5851 5851 5850 5849 5848 5847 5846 5845 5844 5844 5843 5844 5843 5842 5843 5843 5839 5837 5838 5836 5836 5835 5835 5834 5833 5833 5833 5831 5831
5860 5861 5861 5861 5861 5862 5862 5862 5862 5862 5862 5861 5862 5861 5861 5860 5860 5860 5860 5860 5860 5860 5860 5859 5859 5859 5860 5860 5861 5864 5862 5860 5861 5861 5860 5860 5860 5860 5860 5859 5859 5859 5858 5858 5857 5856 5855 5854 5854 5853 5852 5852 5851 5850 5850 5849 5848 5848 5847 5847 5847 5846 5846 5845 5844 5843 5841 5841 5840 5838 5839 5839 5839 5841 5841 5837 5835 5835 5833 5833 5832 5831 5831 5830 5830 5830 5829 5828
5857 5857 5857 5858 5858 5858 5858 5858 5859 5859 5858 5859 5858 5858 5858 5858 5857 5857 5857 5856 5856 5856 5856 5855 5855 5855 5855 5856 5858 5859 5858 5857 5858 5857 5857 5856 5856 5856 5856 5856 5856 5855 5855 5855 5854 5853 5852 5851 5850 5849 5849 5849 5848 5848 5847 5846 5845 5843 5842 5842 5843 5841 5841 5842 5840 5839 5837 5836 5836 5834 5833 5835 5836 5838 5838 5835 5833 5833 5830 5830 5829 5828 5827 5826 5826 5826 5826 5825
5853 5853 5854 5854 5854 5854 5854 5855 5855 5855 5855 5855 5855 5855 5855 5854 5854 5853 5853 5853 5853 5852 5852 5852 5851 5851 5851 5852 5854 5855 5854 5854 5854 5853 5853 5852 5853 5853 5853 5853 5852 5852 5851 5851 5851 5849 5848 5848 5847 5845 5845 5845 5845 5844 5844 5843 5841 5840 5838 5837 5840 5837 5837 5839 5836 5835 5834 5832 5831 5829 5827 5830 5833 5833 5833 5831 5830 5830 5828 5827 5826 5825 5824 5823 5822 5821 5821 5821
5850 5850 5850 5850 5850 5850 5850 5851 5851 5851 5851 5851 5851 5851 5851 5851 5851 5850 5849 5849 5849 5849 5849 5848 5848 5847 5847 5849 5851 5850 5850 5850 5850 5849 5849 5848 5849 5849 5849 5849 5849 5848 5848 5848 5847 5846 5845 5844 5843 5842 5842 5841 5841 5840 5839 5839 5837 5837 5834 5832 5834 5832 5833 5836 5832 5831 5830 5828 5827 5823 5821 5826 5829 5829 5827 5826 5827 5827 5826 5824 5822 5821 5820 5819 5818 5817 5817 5817
5846 5846 5846 5846 5846 5846 5847 5847 5847 5847 5847 5847 5847 5846 5846 5847 5847 5847 5846 5846 5846 5845 5845 5844 5844 5843 5843 5846 5848 5847 5846 5845 5845 5845 5844 5844 5845 5845 5845 5845 5845 5845 5844 5844 5843 5843 5842 5841 5839 5838 5838 5838 5837 5836 5835 5834 5833 5833 5830 5828 5828 5826 5829 5832 5828 5827 5825 5823 5824 5819 5816 5821 5824 5824 5822 5820 5821 5822 5822 5821 5820 5818 5816 5815 5813 5812 5812 5812
5842 5842 5842 5842 5842 5842 5843 5842 5843 5843 5843 5843 5842 5842 5841 5842 5842 5843 5842 5843 5842 5841 5841 5840 5840 5839 5839 5843 5845 5843 5842 5841 5841 5840 5839 5840 5841 5841 5842 5841 5841 5841 5840 5840 5839 5839 5838 5837 5836 5835 5835 5835 5834 5832 5830 5830 5830 5829 5824 5824 5824 5821 5823 5826 5824 5824 5820 5818 5818 5814 5813 5815 5817 5820 5819 5815 5814 5815 5816 5817 5816 5815 5814 5811 5809 5808 5808 5807
5838 5838 5838 5838 5838 5838 5838 5838 5838 5839 5839 5839 5838 5837 5837 5837 5838 5838 5838 5839 5839 5838 5837 5836 5836 5834 5833 5838 5841 5840 5839 5838 5836 5836 5836 5837 5837 5837 5838 5837 5837 5836 5836 5835 5835 5835 5834 5833 5832 5831 5831 5832 5831 5828 5825 5825 5827 5824 5818 5817 5819 5817 5817 5819 5819 5819 5815 5812 5812 5810 5809 5811 5812 5813 5814 5813 5810 5809 5809 5810 5811 5811 5810 5808 5805 5803 5803 5803
5833 5833 5833 5834 5834 5834 5834 5834 5834 5835 5835 5835 5834 5833 5833 5832 5833 5833 5834 5835 5834 5834 5833 5832 5832 5830 5829 5833 5836 5836 5836 5833 5832 5832 5832 5832 5833 5833 5833 5833 5833 5832 5831 5831 5830 5830 5830 5828 5827 5827 5827 5829 5828 5825 5821 5821 5823 5820 5815 5812 5812 5813 5812 5813 5813 5813 5810 5806 5805 5804 5803 5806 5808 5807 5808 5809 5808 5805 5803 5804 5805 5806 5804 5803 5801 5798 5798 5798
5828 5828 5829 5829 5829 5829 5829 5829 5829 5830 5830 5830 5830 5829 5828 5828 5827 5828 5829 5830 5830 5830 5829 5828 5827 5825 5825 5829 5830 5831 5831 5829 5828 5828 5828 5828 5829 5829 5829 5829 5828 5828 5827 5826 5826 5826 5825 5823 5822 5823 5824 5826 5825 5821 5817 5817 5817 5815 5813 5809 5807 5808 5808 5808 5808 5806 5804 5800 5798 5797 5797 5800 5803 5803 5804 5807 5806 5802 5799 5798 5799 5801 5800 5799 5797 5794 5793 5792
5823 5823 5823 5824 5824 5824 5824 5824 5825 5825 5825 5825 5825 5824 5824 5823 5822 5823 5824 5824 5825 5825 5824 5823 5822 5821 5821 5824 5825 5825 5826 5825 5824 5824 5824 5825 5825 5824 5825 5825 5824 5824 5823 5823 5823 5821 5820 5818 5816 5818 5823 5823 5820 5817 5814 5814 5813 5810 5810 5807 5804 5804 5804 5807 5806 5800 5799 5795 5793 5793 5791 5793 5797 5797 5799 5802 5803 5801 5798 5795 5794 5796 5796 5795 5793 5791 5788 5786
5818 5818 5818 5818 5819 5819 5819 5819 5819 5820 5820 5820 5820 5819 5819 5818 5817 5817 5817 5818 5820 5820 5819 5817 5817 5818 5817 5818 5820 5820 5820 5821 5820 5821 5822 5821 5821 5820 5821 5820 5820 5820 5819 5819 5817 5815 5815 5812 5810 5816 5820 5819 5815 5812 5810 5809 5809 5807 5805 5804 5802 5800 5801 5805 5802 5797 5795 5790 5789 5790 5786 5786 5791 5792 5793 5796 5797 5798 5796 5793 5791 5792 5791 5790 5789 5787 5784 5781
5813 5813 5813 5813 5813 5813 5813 5814 5814 5814 5814 5815 5815 5814 5813 5813 5811 5810 5810 5812 5814 5814 5814 5812 5810 5812 5814 5814 5814 5815 5815 5815 5816 5819 5818 5817 5817 5816 5817 5817 5815 5815 5816 5815 5810 5809 5811 5806 5807 5815 5816 5813 5811 5808 5806 5804 5804 5802 5801 5799 5797 5797 5798 5800 5797 5793 5791 5785 5783 5786 5781 5780 5786 5787 5788 5791 5791 5792 5793 5791 5790 5789 5787 5786 5785 5782 5779 5777
5808 5808 5808 5808 5808 5808 5808 5808 5808 5808 5808 5808 5809 5809 5808 5807 5806 5805 5803 5803 5807 5810 5809 5807 5805 5805 5807 5808 5809 5811 5810 5810 5812 5815 5814 5813 5813 5813 5813 5811 5810 5811 5811 5807 5804 5806 5803 5800 5805 5811 5810 5807 5806 5805 5803 5800 5799 5797 5796 5793 5791 5794 5794 5792 5792 5790 5786 5780 5778 5779 5775 5774 5781 5782 5784 5786 5786 5787 5787 5787 5788 5786 5784 5783 5782 5779 5775 5774
5803 5803 5803 5803 5803 5803 5803 5803 5802 5803 5802 5802 5803 5803 5802 5802 5800 5799 5797 5794 5798 5804 5803 5803 5802 5800 5800 5802 5804 5805 5804 5807 5808 5809 5810 5809 5809 5809 5807 5806 5805 5806 5803 5800 5802 5802 5795 5794 5801 5804 5803 5802 5801 5800 5798 5796 5796 5794 5792 5788 5786 5791 5790 5785 5786 5784 5781 5777 5773 5772 5767 5767 5775 5778 5780 5783 5782 5782 5783 5783 5784 5783 5782 5781 5778 5776 5772 5770
5798 5798 5798 5798 5798 5798 5798 5797 5797 5797 5797 5797 5797 5796 5796 5796 5795 5794 5793 5788 5787 5793 5798 5799 5796 5795 5797 5797 5798 5799 5799 5802 5802 5803 5806 5805 5804 5804 5802 5801 5799 5798 5797 5796 5797 5795 5790 5791 5793 5795 5798 5798 5796 5794 5792 5791 5792 5790 5787 5785 5784 5787 5785 5780 5780 5776 5774 5773 5770 5767 5758 5757 5769 5773 5774 5780 5779 5779 5780 5779 5779 5778 5778 5778 5775 5772 5769 5766
5792 5792 5792 5793 5793 5793 5793 5792 5792 5792 5791 5791 5790 5791 5790 5789 5789 5788 5788 5784 5779 5782 5790 5792 5789 5790 5792 5792 5794 5796 5795 5795 5796 5799 5801 5800 5799 5798 5797 5795 5791 5791 5793 5792 5790 5786 5785 5787 5787 5789 5791 5791 5790 5788 5787 5786 5787 5784 5781 5782 5783 5783 5779 5777 5776 5770 5766 5765 5765 5764 5753 5746 5759 5767 5769 5774 5775 5775 5776 5775 5776 5773 5771 5772 5771 5768 5764 5762
5786 5786 5786 5787 5787 5788 5788 5787 5787 5786 5786 5786 5785 5785 5785 5784 5784 5783 5783 5780 5773 5772 5778 5782 5784 5784 5786 5789 5791 5791 5789 5790 5793 5795 5795 5794 5793 5792 5790 5788 5786 5786 5787 5786 5782 5777 5777 5781 5783 5785 5784 5784 5782 5781 5783 5783 5780 5777 5775 5778 5779 5778 5775 5772 5771 5766 5761 5760 5758 5758 5752 5741 5744 5758 5764 5766 5767 5768 5769 5771 5772 5770 5765 5764 5765 5762 5759 5757
5780 5781 5781 5781 5781 5782 5782 5782 5781 5781 5780 5780 5780 5780 5779 5779 5779 5778 5778 5775 5766 5764 5766 5769 5776 5780 5783 5786 5787 5785 5784 5786 5789 5789 5788 5788 5787 5786 5784 5783 5782 5782 5781 5779 5774 5772 5774 5775 5776 5778 5778 5777 5775 5776 5779 5778 5773 5771 5771 5773 5773 5772 5770 5767 5766 5762 5757 5755 5751 5749 5753 5744 5734 5743 5755 5756 5758 5760 5763 5767 5767 5767 5764 5760 5758 5756 5754 5753
5774 5774 5775 5775 5775 5776 5776 5776 5775 5775 5775 5774 5774 5774 5773 5774 5774 5773 5774 5768 5757 5756 5760 5762 5767 5773 5777 5780 5782 5782 5781 5783 5783 5781 5782 5781 5780 5780 5778 5778 5777 5776 5776 5772 5768 5769 5770 5769 5769 5771 5770 5769 5770 5772 5773 5771 5768 5766 5766 5766 5766 5766 5764 5762 5760 5757 5753 5749 5743 5743 5751 5746 5731 5734 5743 5743 5747 5754 5757 5760 5761 5762 5762 5758 5753 5750 5747 5746
5768 5768 5768 5769 5769 5769 5770 5770 5770 5769 5769 5769 5768 5768 5768 5768 5768 5769 5769 5759 5750 5751 5758 5760 5761 5763 5766 5769 5772 5776 5777 5776 5775 5774 5775 5774 5773 5774 5773 5772 5771 5769 5768 5766 5764 5766 5765 5763 5764 5763 5762 5763 5765 5766 5766 5765 5762 5762 5761 5760 5760 5759 5758 5757 5753 5752 5750 5740 5735 5740 5747 5743 5728 5726 5733 5733 5737 5745 5748 5752 5754 5756 5758 5755 5750 5747 5742 5738
5761 5761 5762 5762 5763 5762 5763 5764 5763 5763 5763 5762 5762 5762 5762 5762 5763 5764 5759 5750 5747 5752 5755 5756 5757 5757 5758 5760 5761 5764 5767 5768 5768 5768 5768 5767 5767 5767 5766 5766 5765 5763 5762 5759 5759 5762 5761 5759 5758 5756 5757 5758 5758 5758 5759 5758 5756 5756 5756 5754 5753 5752 5751 5750 5746 5745 5742 5730 5731 5740 5743 5740 5724 5715 5722 5726 5730 5736 5738 5741 5745 5748 5752 5750 5746 5744 5741 5735
5754 5754 5754 5756 5756 5756 5757 5758 5756 5756 5756 5756 5756 5756 5755 5756 5758 5755 5749 5745 5748 5750 5752 5752 5751 5752 5753 5753 5752 5753 5755 5759 5761 5761 5761 5761 5761 5760 5759 5758 5758 5756 5755 5753 5753 5756 5755 5753 5752 5752 5752 5752 5751 5752 5751 5751 5751 5751 5751 5748 5747 5746 5744 5741 5738 5738 5734 5725 5729 5737 5738 5735 5720 5711 5719 5722 5723 5728 5730 5730 5733 5740 5745 5744 5741 5739 5737 5734
5747 5747 5748 5749 5750 5750 5750 5750 5750 5749 5750 5750 5750 5749 5749 5749 5749 5747 5744 5745 5744 5743 5748 5749 5746 5746 5745 5745 5745 5746 5746 5748 5750 5751 5752 5753 5753 5754 5753 5751 5750 5748 5747 5748 5748 5748 5747 5746 5747 5746 5746 5747 5746 5745 5744 5744 5745 5745 5744 5742 5740 5738 5735 5732 5730 5730 5728 5724 5728 5732 5730 5723 5711 5712 5720 5721 5721 5723 5723 5721 5721 5731 5738 5737 5735 5733 5731 5729
5741 5741 5741 5742 5744 5744 5744 5743 5744 5744 5744 5744 5742 5741 5743 5740 5741 5744 5742 5742 5739 5737 5741 5742 5739 5740 5739 5739 5739 5738 5737 5737 5740 5741 5742 5743 5743 5745 5746 5745 5745 5742 5741 5742 5741 5738 5737 5739 5740 5739 5741 5743 5740 5738 5737 5737 5738 5737 5736 5735 5734 5732 5727 5723 5724 5724 5721 5722 5725 5724 5720 5710 5704 5709 5716 5718 5720 5719 5718 5716 5713 5721 5731 5730 5729 5727 5724 5722
5734 5734 5735 5735 5737 5738 5737 5737 5738 5738 5738 5737 5734 5733 5733 5731 5735 5740 5737 5735 5735 5733 5733 5734 5734 5734 5733 5733 5732 5730 5730 5728 5730 5731 5731 5733 5734 5735 5737 5738 5738 5737 5736 5735 5733 5731 5729 5731 5734 5734 5734 5736 5734 5733 5732 5731 5730 5729 5730 5728 5725 5724 5721 5718 5721 5720 5716 5716 5717 5714 5707 5702 5702 5705 5708 5710 5712 5710 5712 5713 5709 5714 5723 5724 5721 5719 5716 5715
5727 5728 5728 5729 5731 5731 5731 5730 5732 5732 5731 5730 5726 5723 5723 5725 5732 5734 5730 5729 5728 5726 5727 5728 5728 5728 5727 5726 5725 5725 5726 5722 5722 5723 5721 5723 5724 5727 5729 5729 5730 5732 5729 5727 5727 5727 5723 5723 5728 5725 5724 5727 5727 5728 5727 5724 5723 5723 5722 5719 5716 5720 5719 5715 5715 5715 5712 5708 5707 5703 5698 5698 5701 5702 5703 5704 5702 5702 5704 5704 5704 5710 5716 5716 5713 5712 5710 5709
5720 5721 5721 5723 5726 5725 5723 5723 5724 5723 5723 5723 5716 5711 5717 5723 5727 5725 5722 5723 5722 5720 5719 5719 5720 5720 5719 5720 5719 5720 5719 5717 5716 5714 5713 5714 5714 5718 5720 5720 5722 5724 5723 5721 5720 5720 5716 5716 5721 5717 5714 5719 5719 5719 5720 5718 5716 5716 5713 5712 5713 5716 5714 5709 5706 5708 5708 5699 5697 5698 5693 5694 5698 5696 5698 5700 5698 5699 5699 5696 5698 5704 5710 5709 5707 5705 5704 5703
5712 5712 5713 5717 5719 5717 5715 5716 5715 5712 5713 5712 5703 5704 5713 5718 5720 5718 5715 5717 5716 5713 5711 5709 5712 5713 5712 5712 5712 5713 5711 5709 5708 5706 5706 5706 5705 5709 5712 5711 5713 5715 5716 5715 5712 5713 5709 5707 5714 5713 5708 5710 5710 5709 5712 5711 5708 5707 5708 5710 5711 5709 5706 5702 5697 5698 5700 5692 5690 5694 5690 5690 5695 5691 5690 5692 5691 5692 5691 5690 5693 5699 5703 5703 5701 5700 5698 5696
5703 5702 5704 5711 5712 5708 5707 5707 5706 5703 5701 5698 5694 5699 5706 5709 5713 5713 5710 5711 5710 5707 5704 5702 5703 5705 5704 5704 5705 5705 5702 5700 5701 5699 5699 5699 5698 5702 5705 5703 5704 5705 5708 5707 5703 5705 5703 5697 5704 5708 5702 5701 5702 5701 5701 5702 5700 5701 5705 5707 5705 5699 5696 5693 5688 5688 5690 5685 5682 5687 5687 5687 5690 5689 5688 5688 5685 5682 5681 5682 5685 5691 5698 5698 5695 5693 5691 5690
5693 5691 5694 5704 5704 5698 5699 5698 5696 5693 5689 5685 5686 5692 5699 5702 5706 5705 5701 5702 5703 5702 5699 5696 5696 5695 5695 5697 5698 5697 5694 5692 5692 5690 5690 5692 5692 5695 5697 5696 5695 5696 5698 5698 5693 5696 5695 5687 5689 5696 5695 5693 5694 5694 5693 5694 5695 5695 5696 5697 5695 5692 5687 5683 5680 5680 5681 5676 5673 5679 5682 5683 5684 5686 5687 5685 5682 5678 5676 5676 5676 5679 5687 5690 5689 5687 5684 5684
5683 5680 5684 5695 5693 5687 5690 5688 5684 5681 5678 5677 5680 5685 5692 5694 5694 5695 5694 5694 5695 5694 5691 5689 5689 5687 5686 5689 5690 5690 5687 5684 5683 5681 5680 5684 5685 5686 5688 5687 5687 5687 5688 5687 5684 5685 5684 5677 5676 5683 5686 5684 5686 5688 5688 5689 5688 5685 5683 5684 5684 5684 5680 5674 5672 5674 5674 5668 5666 5668 5671 5677 5681 5680 5680 5679 5678 5677 5674 5673 5672 5670 5674 5679 5682 5681 5678 5677
5673 5669 5674 5686 5682 5677 5679 5676 5672 5671 5669 5671 5675 5677 5681 5682 5684 5688 5688 5685 5685 5684 5683 5681 5681 5680 5679 5680 5682 5684 5681 5675 5675 5674 5672 5675 5677 5677 5678 5678 5678 5678 5677 5675 5676 5676 5674 5670 5667 5669 5672 5674 5677 5680 5680 5680 5678 5674 5672 5674 5675 5674 5673 5666 5661 5667 5668 5660 5659 5659 5656 5665 5676 5674 5673 5675 5673 5672 5670 5669 5669 5666 5665 5668 5671 5672 5671 5669
5661 5659 5665 5674 5669 5667 5668 5662 5660 5660 5658 5663 5669 5667 5668 5670 5673 5677 5678 5677 5675 5674 5674 5672 5672 5673 5672 5672 5674 5675 5673 5668 5666 5667 5666 5668 5670 5670 5670 5671 5669 5668 5667 5665 5666 5669 5666 5659 5655 5655 5660 5664 5667 5671 5670 5668 5667 5665 5660 5664 5668 5666 5665 5660 5653 5658 5660 5650 5651 5652 5640 5649 5669 5671 5669 5669 5666 5664 5663 5663 5663 5660 5660 5661 5661 5661 5660 5658
5651 5650 5654 5660 5658 5657 5655 5649 5648 5649 5648 5655 5658 5657 5659 5660 5662 5666 5669 5668 5666 5664 5664 5663 5664 5665 5664 5665 5665 5664 5665 5661 5658 5660 5660 5659 5663 5665 5664 5663 5663 5661 5659 5657 5657 5658 5655 5647 5642 5643 5646 5650 5656 5661 5661 5660 5658 5653 5652 5659 5662 5657 5656 5653 5646 5649 5648 5639 5644 5641 5624 5634 5663 5668 5664 5664 5661 5658 5657 5656 5655 5653 5653 5654 5654 5654 5651 5647
5640 5640 5641 5646 5647 5645 5641 5638 5640 5639 5640 5645 5645 5646 5650 5649 5651 5658 5661 5660 5657 5654 5653 5654 5655 5655 5654 5656 5655 5654 5656 5652 5649 5653 5652 5649 5655 5661 5659 5658 5658 5655 5652 5652 5648 5645 5644 5638 5633 5632 5633 5636 5644 5651 5653 5653 5649 5643 5646 5651 5651 5649 5647 5643 5640 5639 5631 5628 5637 5629 5611 5626 5656 5661 5656 5656 5655 5653 5655 5653 5648 5645 5645 5646 5646 5645 5642 5638
5629 5628 5629 5633 5633 5631 5629 5631 5633 5628 5628 5632 5631 5634 5639 5636 5639 5649 5651 5650 5648 5644 5642 5643 5646 5645 5644 5645 5644 5645 5647 5644 5640 5643 5643 5641 5645 5652 5654 5652 5651 5649 5647 5646 5640 5635 5633 5629 5625 5624 5623 5624 5631 5640 5645 5645 5638 5634 5637 5640 5641 5641 5637 5633 5632 5625 5617 5620 5626 5616 5606 5620 5644 5651 5648 5649 5649 5647 5648 5648 5643 5639 5639 5638 5637 5634 5633 5632
5617 5615 5617 5621 5619 5617 5617 5622 5624 5618 5618 5621 5618 5620 5626 5625 5629 5639 5639 5637 5638 5638 5633 5631 5633 5633 5632 5635 5635 5635 5637 5635 5631 5629 5630 5633 5636 5640 5644 5643 5642 5642 5640 5637 5632 5626 5621 5618 5617 5616 5614 5615 5619 5626 5634 5633 5624 5623 5629 5632 5632 5630 5628 5627 5620 5612 5612 5615 5609 5606 5610 5613 5624 5638 5642 5643 5644 5640 5638 5639 5637 5634 5632 5630 5627 5626 5626 5626
5605 5603 5606 5609 5605 5603 5605 5610 5613 5609 5609 5611 5605 5606 5614 5616 5618 5624 5624 5624 5628 5630 5624 5618 5620 5622 5622 5626 5626 5623 5625 5626 5621 5618 5618 5622 5627 5630 5632 5631 5631 5632 5632 5627 5622 5617 5609 5604 5608 5607 5604 5606 5609 5612 5620 5620 5614 5615 5619 5621 5622 5620 5619 5617 5608 5605 5612 5605 5591 5600 5611 5603 5606 5624 5631 5633 5636 5632 5629 5630 5628 5626 5624 5621 5619 5619 5620 5619
5594 5593 5595 5595 5590 5590 5594 5597 5602 5601 5598 5597 5594 5594 5600 5605 5607 5609 5613 5617 5617 5617 5612 5606 5608 5612 5614 5618 5616 5610 5612 5613 5610 5610 5611 5611 5616 5619 5618 5618 5620 5622 5622 5616 5612 5610 5598 5591 5599 5599 5593 5595 5599 5600 5605 5607 5605 5608 5608 5609 5612 5612 5608 5603 5600 5604 5608 5593 5582 5594 5602 5594 5599 5611 5615 5619 5623 5620 5617 5617 5616 5617 5617 5614 5611 5609 5611 5611
5584 5582 5582 5582 5578 5579 5584 5587 5590 5589 5587 5586 5583 5582 5586 5591 5595 5599 5604 5606 5602 5601 5601 5595 5598 5604 5606 5608 5605 5597 5598 5601 5599 5603 5606 5603 5603 5604 5602 5603 5608 5612 5610 5602 5601 5602 5590 5581 5589 5591 5583 5583 5588 5589 5593 5595 5594 5596 5598 5600 5602 5601 5598 5596 5595 5599 5598 5585 5580 5588 5587 5584 5593 5601 5603 5606 5606 5603 5602 5604 5607 5609 5608 5607 5604 5600 5600 5601
5573 5570 5569 5570 5569 5570 5574 5577 5577 5575 5576 5576 5573 5572 5575 5577 5580 5586 5591 5591 5587 5589 5591 5587 5589 5596 5596 5596 5592 5585 5587 5592 5590 5593 5599 5594 5589 5589 5587 5588 5596 5600 5597 5592 5591 5590 5582 5575 5580 5582 5572 5569 5577 5582 5583 5582 5580 5580 5584 5588 5589 5589 5590 5592 5592 5592 5587 5579 5578 5580 5573 5572 5586 5596 5595 5593 5591 5588 5590 5594 5599 5601 5598 5596 5595 5592 5589 5587
5561 5559 5558 5557 5558 5561 5564 5566 5566 5562 5561 5564 5563 5565 5567 5566 5569 5573 5574 5574 5576 5576 5578 5579 5581 5583 5581 5580 5578 5576 5580 5584 5579 5581 5586 5581 5576 5577 5576 5575 5581 5582 5581 5582 5581 5578 5573 5568 5572 5573 5559 5554 5567 5573 5569 5569 5567 5561 5566 5575 5580 5581 5582 5583 5584 5583 5579 5574 5572 5570 5563 5565 5581 5588 5582 5580 5581 5579 5581 5586 5588 5588 5586 5584 5583 5582 5578 5575
5549 5548 5547 5544 5543 5550 5556 5556 5554 5550 5549 5554 5556 5556 5556 5555 5560 5562 5557 5558 5565 5566 5567 5569 5569 5568 5566 5564 5566 5569 5572 5572 5568 5568 5571 5568 5565 5567 5567 5567 5568 5567 5567 5570 5570 5567 5564 5560 5561 5561 5548 5543 5555 5559 5556 5557 5548 5539 5552 5570 5576 5576 5573 5569 5567 5569 5571 5569 5562 5556 5557 5564 5573 5573 5568 5570 5574 5574 5574 5578 5577 5574 5573 5572 5571 5569 5566 5564